Location: Brac
(44.2539°N, 6.6574°E)
Time: 19:59:37
(UTC+00:00)

Daily predictions for brighter satellites

Satellite Brightness Start Highest point End
(mag) Time Altitude Azimuth Time Altitude Azimuth Time Altitude Azimuth
Cosmos 2263 Rocket 3.9 19:09:29 10° SW 19:14:41 40° WNW 19:19:56 10° NNE
Sich 1 4.2 19:12:43 10° NNE 19:16:21 26° ENE 19:20:01 10° SE
Cosmos 968 Rocket 3.6 19:11:26 10° S 19:16:32 55° ESE 19:21:39 10° NNE
Cosmos 1689 Rocket 4.0 19:14:39 10° N 19:17:13 32° WNW 19:19:45 10° SW
FALCON 9 DEB 3.2 19:14:17 10° WNW 19:17:16 57° SW 19:20:15 10° SE
Cosmos 1943 4.3 19:12:41 10° NW 19:18:03 46° WSW 19:23:25 10° S
Cosmos 1606 2.8 19:15:20 10° S 19:18:59 52° E 19:22:41 10° NNE
Cosmos 1844 Rocket 2.8 19:13:39 10° S 19:19:00 52° ESE 19:24:25 10° NE
Resurs 01 Rocket 2.8 19:16:24 10° SE 19:20:11 28° ENE 19:23:58 10° N
FALCON 9 DEB 3.5 19:20:15 10° WNW 19:23:11 46° SW 19:26:05 10° SE
Cosmos 1486 Rocket 4.1 19:23:25 10° S 19:28:37 56° ESE 19:33:50 10° NNE
CZ-4C R/B 4.1 19:24:23 10° NNW 19:30:27 31° NE 19:37:22 10° E
FALCON 9 DEB 3.4 19:30:37 10° WNW 19:33:34 48° SW 19:36:23 11° SE
ERS-2 3.2 19:30:05 10° N 19:33:36 50° WNW 19:37:07 10° SSW
SL-4 R/B 2.4 19:30:16 10° WNW 19:34:35 66° SW 19:38:59 11° SE
Cosmos 1151 Rocket 4.4 19:33:09 10° SE 19:36:22 21° E 19:39:36 10° NE
SL-08 ROCKET BODY 4.3 19:31:28 10° N 19:37:24 82° E 19:43:15 10° S
ATLAS 5 CENTAUR R/B 2.9 19:36:03 10° NNW 19:41:23 47° NE 19:47:09 12° ESE
Cosmos 1844 3.7 19:36:45 10° SSW 19:42:25 66° ESE 19:48:03 10° NNE
OBJECT-B 1.8 19:39:24 10° S 19:42:31 46° W 19:45:41 10° NNW
IRS-1A Rocket 4.5 19:44:41 10° SSE 19:50:26 80° WSW 19:56:20 10° NNW
Intercosmos 24 3.7 19:49:43 10° S 19:53:33 60° E 19:57:04 10° NNE
Cosmos 1833 Rocket 4.2 19:49:08 10° N 19:53:34 23° NE 19:57:45 11° E
Cosmos 1242 Rocket 2.8 19:52:47 10° S 19:56:14 46° E 19:59:39 10° NNE
Cosmos 1805 Rocket 3.6 19:56:00 10° N 20:00:22 84° W 20:04:44 10° S
SPOT 5 4.5 20:01:56 14° ESE 20:04:55 23° ENE 20:08:58 10° NNE
Cosmos 1633 Rocket 3.5 20:03:52 10° N 20:08:05 43° ENE 20:10:42 21° SE
Cosmos 1386 Rocket 4.5 20:02:14 10° N 20:08:17 87° W 20:14:23 10° S
ARIANE 5 R/B 3.7 20:06:13 18° ESE 20:08:31 29° ENE 20:12:17 10° N
DELTA 2 R/B (1) 4.1 20:03:36 10° W 20:08:52 44° SSW 20:12:22 20° SE
Terra 3.7 20:06:40 12° E 20:09:04 17° ENE 20:12:03 10° NNE
CZ-2C R/B 3.9 20:04:48 10° NNE 20:09:10 48° E 20:13:09 12° S
USA 290 2.1 20:09:50 10° NNW 20:13:06 87° WSW 20:14:52 25° SSE
ERS-1 Rocket 4.2 20:10:41 17° ESE 20:13:25 27° ENE 20:17:35 10° N
IGS 5A 3.4 20:11:11 16° SSE 20:14:24 86° ENE 20:18:34 10° NNW
Cosmos 883 Rocket 4.5 20:11:12 10° S 20:17:27 72° E 20:23:47 10° NNE
Cosmos 1328 Rocket 3.9 20:14:51 20° SSE 20:17:37 44° E 20:21:51 10° NNE
Cosmos 1745 Rocket 4.2 20:11:39 10° NNW 20:17:50 73° W 20:23:56 10° S
Cosmos 1437 3.5 20:17:58 28° E 20:17:58 28° E 20:20:26 10° NNE
Cosmos 1933 3.4 20:14:35 10° SSW 20:18:37 77° W 20:22:40 10° N
Cosmos 1503 Rocket 3.9 20:14:26 10° SSW 20:19:36 89° ESE 20:24:51 10° NNE
Cosmos 1709 Rocket 3.9 20:14:27 10° N 20:20:35 71° E 20:25:15 18° SSE
Cosmos 1437 Rocket 4.3 20:17:57 10° SW 20:21:32 36° WNW 20:25:12 10° N
X-37B 0.5 20:19:45 10° W 20:22:57 87° SSW 20:24:16 33° ESE
Cosmos 1777 Rocket 4.5 20:20:39 19° SSE 20:23:53 39° ESE 20:28:41 10° NE
CARTOSAT-1 4.2 20:23:35 25° ESE 20:25:30 39° ENE 20:29:32 10° N
Cosmos 2082 Rocket 3.8 20:24:38 10° N 20:29:00 23° NE 20:32:17 14° E
Cosmos 1500 3.7 20:25:28 10° N 20:29:03 41° ENE 20:30:08 32° ESE
COSMOS 2406 4.0 20:24:15 10° NNW 20:29:34 39° ENE 20:32:38 22° ESE
Ariane Rocket 4.4 20:26:37 10° SSW 20:31:12 34° W 20:35:48 10° NNW
Cosmos 1666 Rocket 3.6 20:30:14 10° N 20:34:40 80° W 20:37:20 23° S
Meteor 2-17 Rocket 4.5 20:30:56 10° N 20:37:06 83° W 20:41:51 18° S
Cosmos 2315 Rocket 4.0 20:31:45 10° S 20:38:07 84° E 20:44:32 10° N
Landsat 7 4.2 20:35:42 18° S 20:39:10 63° W 20:43:54 10° NNW
Cosmos 1782 2.8 20:36:20 18° S 20:39:14 83° W 20:43:15 10° N
SWARM A 4.4 20:38:14 10° N 20:41:28 49° E 20:41:49 46° ESE
USA 245 2.4 20:42:52 59° N 20:42:52 59° N 20:44:45 10° NNW
USA 306 4.4 20:41:17 10° NW 20:45:08 32° NNE 20:47:59 16° ENE
Cosmos 1271 Rocket 3.9 20:46:42 27° E 20:46:42 27° E 20:49:57 10° NNE
SPOT 1/Viking Rocket 3.6 20:45:30 24° S 20:48:39 77° WSW 20:53:53 10° NNW
SJ 16-02 2.0 20:52:10 35° ESE 20:52:22 35° ESE 20:56:25 10° NE
Cosmos 2278 Rocket 2.3 20:50:05 26° S 20:53:07 52° ESE 20:58:36 10° NE
Resurs 01 Rocket 3.2 20:53:04 12° SSW 20:56:35 30° W 21:00:31 10° NNW
NOSS 3-4 (A) 4.5 20:52:17 10° NNW 20:58:55 46° NE 21:03:32 22° ESE
NOSS 3-4 (C) 4.5 20:52:24 10° NNW 20:59:01 46° NE 21:03:39 22° ESE
Cosmos 2228 Rocket 4.0 21:01:58 32° E 21:02:00 32° E 21:05:57 10° NNE
H-2A R/B 3.9 21:00:39 10° NNE 21:04:38 42° E 21:04:38 42° E
NOSS 3-3 (A) 4.1 21:01:10 10° SW 21:06:53 74° NW 21:13:28 10° NE
NOSS 3-3 (C) 4.1 21:01:16 10° SW 21:07:00 74° NW 21:13:33 10° NE
Cosmos 1943 Rocket 4.2 21:11:10 12° E 21:11:10 12° E 21:12:05 10° ENE
USA 307 4.0 21:07:00 10° NW 21:11:02 39° NNE 21:12:48 26° ENE
ATLAS 2AS CENTAUR R/B 3.9 21:05:28 10° NNW 21:12:17 36° NE 21:16:52 18° E
Cosmos 1151 Rocket 4.4 21:09:50 11° SW 21:13:39 36° WNW 21:17:43 10° N
CREW DRAGON DEMO-1 DEB 4.5 21:13:11 10° NW 21:15:13 26° N 21:15:13 26° N
Cosmos 1812 3.0 21:16:50 46° SW 21:17:46 65° W 21:21:37 10° N
BREEZE-M R/B 3.7 21:15:43 10° WNW 21:17:55 28° N 21:18:26 26° NNE
Meteor 1-10 Rocket 4.1 21:17:12 41° S 21:19:11 72° E 21:24:49 10° NNE
Cosmos 1536 3.9 21:15:52 10° N 21:19:22 32° ENE 21:19:22 32° ENE
CZ-4C R/B 3.0 21:12:31 10° NW 21:19:52 88° SW 21:23:48 36° SSE
Iridium 4 Rocket 3.7 21:18:17 38° S 21:20:39 87° E 21:26:36 10° N
USA 308 3.7 21:20:29 10° NW 21:24:38 46° NNE 21:25:49 36° ENE
ATLAS 5 CENTAUR R/B 3.3 21:20:43 10° NW 21:26:04 38° WSW 21:28:41 27° SSW
Cosmos 1538 Rocket 4.0 21:22:05 10° NNW 21:27:29 86° WSW 21:28:51 52° SSE
Meteor 1-5 Rocket 4.3 21:23:37 10° NNW 21:28:58 66° W 21:30:46 40° SSW
Cosmos 2084 4.5 21:25:01 10° WSW 21:28:59 44° NW 21:33:04 10° NNE
SL-24 DEB 4.1 21:30:18 62° ESE 21:30:46 67° E 21:35:20 10° N
Cosmos 158 Rocket 3.9 21:27:02 10° NNW 21:31:54 64° ENE 21:32:38 56° ESE
Milstar 3 4.2 21:22:10 10° SW 21:32:09 29° S 21:32:20 29° S
Cosmos 1666 2.9 21:31:17 10° NNW 21:34:56 60° W 21:34:56 60° W
Cosmos 1515 Rocket 4.4 21:34:01 30° SW 21:35:44 47° WNW 21:40:01 10° N
Cosmos 1833 Rocket 2.8 21:32:23 10° NNW 21:38:00 66° WSW 21:39:27 48° S
Cosmos 1869 Rocket 3.5 21:37:01 10° N 21:41:16 68° ENE 21:41:16 68° ENE
SPOT 5 3.6 21:41:10 39° SW 21:42:35 50° W 21:47:42 10° NNW
Cosmos 1743 4.1 21:40:01 10° NNE 21:42:43 28° NE 21:42:43 28° NE
Cosmos 2327 Rocket 4.5 21:38:27 10° N 21:44:53 77° E 21:46:40 50° SSE
Cosmos 1680 Rocket 4.0 21:39:45 10° N 21:44:55 47° ENE 21:45:47 43° E
ARIANE 5 R/B 4.1 21:43:44 24° WSW 21:44:56 27° W 21:48:40 10° NW
Terra 2.0 21:45:33 54° SW 21:46:18 63° W 21:51:03 10° NNW
Cosmos 2297 4.4 21:50:18 37° E 21:50:18 37° E 21:54:59 10° NE
ERS-1 Rocket 3.9 21:50:41 33° SW 21:52:00 40° W 21:56:44 10° NNW
Cosmos 2154 Rocket 4.0 21:52:10 10° N 21:58:32 82° W 22:00:11 53° S
Cosmos 1707 Rocket 4.1 21:59:37 46° ENE 21:59:37 46° ENE 22:03:08 10° NNE
ALOS 2 4.3 21:59:30 22° ENE 21:59:32 22° ENE 22:02:52 10° NNE
USA 305 3.2 22:01:56 10° NW 22:05:35 64° NW 22:05:35 64° NW
Cosmos 2082 Rocket 2.2 22:08:01 10° NNW 22:13:36 66° WSW 22:14:08 62° SW
Meteor 1-27 Rocket 4.0 22:12:02 47° SW 22:13:37 66° WNW 22:19:31 10° N
COSMOS 2406 4.2 22:08:45 10° NW 22:13:46 34° WSW 22:14:42 32° SW
Cosmos 962 Rocket 4.3 22:09:57 10° N 22:16:07 81° E 22:17:03 65° SSE
Cosmos 44 3.9 22:12:18 10° NNW 22:17:38 52° NE 22:18:21 48° ENE
Nadezhda 1 Rocket 4.4 22:16:05 39° SW 22:18:19 59° W 22:24:31 10° N
Cosmos 923 Rocket 4.0 22:15:14 10° NNW 22:20:28 68° WSW 22:20:38 67° WSW
Cosmos 1898 Rocket 3.4 22:20:55 81° ESE 22:20:55 81° ESE 22:26:16 10° NNE
USA 306 3.9 22:21:07 10° WNW 22:24:02 42° WNW 22:24:02 42° WNW
SJ 16-02 3.4 22:29:06 18° W 22:31:01 24° WNW 22:34:39 10° N
Cosmos 1733 Rocket 3.5 22:28:49 10° N 22:32:19 57° N 22:32:19 57° N
Meteor 1-19 Rocket 4.2 22:33:42 62° E 22:33:42 62° E 22:38:48 10° NNE
Cosmos 2181 Rocket 3.8 22:34:44 68° SE 22:35:18 73° E 22:41:26 10° NNE
Cosmos 2278 Rocket 4.0 22:32:45 10° WSW 22:37:30 27° NW 22:42:18 10° N
Cosmos 1238 Rocket 3.6 22:33:15 10° N 22:39:34 89° E 22:39:54 80° SSE
Okean 1 4.4 22:40:56 43° N 22:40:56 43° N 22:43:41 10° N
Cosmos 990 Rocket 4.4 22:40:05 51° W 22:40:49 56° WNW 22:46:01 10° NNE
Cosmos 1340 Rocket 4.2 22:40:34 10° NNW 22:43:27 35° WNW 22:43:27 35° WNW
Cosmos 2369 Rocket 2.9 22:48:04 40° E 22:48:04 40° E 22:52:29 10° NE
Cosmos 372 Rocket 4.5 22:49:28 49° ENE 22:49:28 49° ENE 22:53:32 10° NNE
Cosmos 2366 rocket 3.8 22:42:48 10° N 22:49:01 81° E 22:49:36 73° SE
NOSS 3-4 (A) 4.2 22:43:10 10° NW 22:49:59 49° WSW 22:50:58 47° SW
NOSS 3-4 (C) 4.2 22:43:16 10° NW 22:50:06 49° WSW 22:51:05 47° SW
Cosmos 2341 Rocket 4.1 22:44:31 10° NNW 22:50:51 64° W 22:51:45 58° SW
Cosmos 967 Rocket 4.4 22:49:56 67° SW 22:50:52 86° WNW 22:57:12 10° NNE
Cosmos 1943 Rocket 2.0 22:52:38 88° ESE 22:52:38 88° ESE 22:58:17 10° NNE
Cosmos 1461 4.4 22:58:12 35° ENE 22:58:12 35° ENE 23:00:59 10° NE
Meteor 2-9 Rocket 4.1 22:50:37 10° NNW 22:56:27 85° W 22:56:34 84° SW
SeaSat 1 3.9 22:52:15 10° NE 22:55:08 27° ENE 22:55:08 27° ENE
USA 215 3.7 22:57:12 25° E 23:01:00 59° NNE 23:07:24 10° NW
ATLAS 2AS CENTAUR R/B 2.7 22:56:30 10° NW 23:03:42 64° WSW 23:04:17 62° SW
RESURS DK-1 4.2 23:04:18 10° N 23:07:43 25° NE 23:07:43 25° NE
CZ-4C R/B 4.4 23:02:15 10° WNW 23:07:57 23° WSW 23:08:59 22° WSW
Cosmos 2218 Rocket 4.0 23:02:15 10° NNW 23:08:30 71° W 23:09:04 67° SW
Meteor 2-4 Rocket 3.7 23:09:23 75° E 23:09:23 75° E 23:15:01 10° NNE
Cosmos 1975 4.2 23:05:44 10° NNW 23:08:17 38° NNW 23:08:17 38° NNW
SL-24 R/B - RUBIN 2 4.4 23:05:01 10° NW 23:09:19 51° WNW 23:09:19 51° WNW
Cosmos 489 Rocket 4.3 23:05:32 10° NNW 23:11:47 82° WSW 23:12:08 78° SSW
Cosmos 1656 Rocket 4.3 23:17:56 43° E 23:17:56 43° E 23:22:20 10° NE
Cosmos 1937 Rocket 4.4 23:26:03 37° WNW 23:26:39 38° WNW 23:31:29 10° N
Nadezhda 3 Rocket 4.0 23:28:06 67° ESE 23:28:29 68° E 23:34:41 10° NNE
ATLAS CENTAUR R/B 3.8 23:34:53 14° ENE 23:34:53 14° ENE 23:35:33 10° NE
ALOS 2 4.0 23:36:53 32° WNW 23:36:53 32° WNW 23:39:45 10° NNW
Cosmos 1607 3.9 23:36:39 68° SE 23:36:45 68° ESE 23:43:12 10° NE
Thor Agena Rocket 3.5 23:31:40 10° NNE 23:36:39 81° N 23:36:39 81° N
Cosmos 1818 4.1 23:32:31 10° NW 23:36:53 49° WNW 23:36:53 49° WNW
Cosmos 1048 Rocket 4.1 23:34:02 10° NNW 23:39:11 73° NE 23:39:11 73° NE
Cosmos 2298 Rocket 4.1 23:41:55 70° ENE 23:41:55 70° ENE 23:46:44 10° NNE
Okean 1-7 4.0 23:42:48 45° NNW 23:42:48 45° NNW 23:45:54 10° N
PSLV R/B 4.4 23:41:52 10° NNE 23:45:08 46° NE 23:45:08 46° NE
Resurs 1-4 Rocket 4.1 23:49:38 10° NE 23:52:42 15° E 23:53:19 15° E
